| time (UTC) | temp C | wind direction | speed KPH | gust KPH | rain 1hr cm | rain 24hr cm | rain mn cm | humidity % | barometer mb |
| 20260503200041 | 31 | 0 | 0.0 | 8.0 | 0.00 | 0.00 | 0.00 | 33 | 1009.6 |
| 20260503194535 | 29 | 284 | 1.6 | 4.8 | 0.00 | 0.00 | 0.00 | 43 | 1009.9 |
| 20260503193036 | 29 | 291 | 1.6 | 4.8 | 0.00 | 0.00 | 0.00 | 40 | 1010.0 |
| 20260503191540 | 29 | 295 | 3.2 | 4.8 | 0.00 | 0.00 | 0.00 | 42 | 1010.3 |
| 20260503190042 | 31 | 95 | 0.0 | 3.2 | 0.00 | 0.00 | 0.00 | 33 | 1010.3 |
| 20260503184547 | 30 | 0 | 0.0 | 3.2 | 0.00 | 0.03 | 0.00 | 36 | 1010.6 |
| 20260503183051 | 29 | 0 | 0.0 | 4.8 | 0.00 | 0.03 | 0.00 | 37 | 1010.7 |
| 20260503181535 | 28 | 0 | 0.0 | 6.4 | 0.00 | 0.03 | 0.00 | 42 | 1010.9 |
| 20260503180043 | 28 | 96 | 0.0 | 4.8 | 0.00 | 0.03 | 0.00 | 41 | 1011.1 |
| 20260503174542 | 27 | 0 | 0.0 | 1.6 | 0.00 | 0.03 | 0.00 | 43 | 1011.3 |
| 20260503173042 | 26 | 117 | 0.0 | 6.4 | 0.00 | 0.03 | 0.00 | 44 | 1011.3 |
| 20260503171538 | 25 | 146 | 0.0 | 4.8 | 0.00 | 0.03 | 0.00 | 47 | 1011.5 |
| 20260503081545 | 13 | 0 | 0.0 | 0.0 | 0.00 | 0.03 | 0.00 | 88 | 1012.2 |
| 20260503071535 | 14 | 0 | 0.0 | 0.0 | 0.00 | 0.03 | 0.00 | 86 | 1012.1 |
| 20260503054550 | 15 | 0 | 0.0 | 1.6 | 0.00 | 0.03 | 0.03 | 83 | 1012.3 |
| 20260503053034 | 16 | 0 | 0.0 | 1.6 | 0.00 | 0.03 | 0.03 | 81 | 1012.3 |
| 20260503051543 | 17 | 0 | 0.0 | 1.6 | 0.00 | 0.03 | 0.03 | 78 | 1012.1 |
| 20260503050041 | 17 | 0 | 0.0 | 1.6 | 0.00 | 0.03 | 0.03 | 78 | 1012.4 |
| 20260503044536 | 17 | 0 | 0.0 | 1.6 | 0.00 | 0.03 | 0.03 | 78 | 1012.2 |
| 20260503043036 | 17 | 0 | 0.0 | 1.6 | 0.00 | 0.03 | 0.03 | 76 | 1012.0 |
| 20260503041542 | 17 | 0 | 0.0 | 1.6 | 0.00 | 0.03 | 0.03 | 75 | 1012.1 |
| 20260503040047 | 18 | 0 | 0.0 | 1.6 | 0.00 | 0.03 | 0.03 | 74 | 1012.2 |
| 20260503034545 | 18 | 0 | 0.0 | 0.0 | 0.00 | 0.03 | 0.03 | 72 | 1012.2 |
| 20260503033053 | 18 | 106 | 0.0 | 1.6 | 0.00 | 0.03 | 0.03 | 72 | 1011.9 |
| 20260503031552 | 18 | 0 | 0.0 | 1.6 | 0.00 | 0.03 | 0.03 | 72 | 1011.6 |
| 20260503030037 | 18 | 0 | 0.0 | 0.0 | 0.00 | 0.03 | 0.03 | 73 | 1011.7 |
| 20260503024536 | 18 | 0 | 0.0 | 1.6 | 0.00 | 0.03 | 0.03 | 73 | 1011.8 |
| 20260503023039 | 18 | 293 | 1.6 | 11.3 | 0.00 | 0.03 | 0.03 | 72 | 1012.1 |
| 20260503021540 | 18 | 20 | 3.2 | 8.0 | 0.00 | 0.03 | 0.03 | 72 | 1012.2 |
| 20260503020045 | 20 | 290 | 3.2 | 12.9 | 0.00 | 0.03 | 0.03 | 69 | 1012.2 |
| 20260503014541 | 20 | 153 | 0.0 | 4.8 | 0.00 | 0.03 | 0.03 | 67 | 1011.4 |
| 20260503013035 | 20 | 281 | 0.0 | 3.2 | 0.00 | 0.03 | 0.03 | 66 | 1011.2 |
| 20260503011541 | 20 | 0 | 0.0 | 4.8 | 0.00 | 0.03 | 0.03 | 67 | 1011.2 |
| 20260503010039 | 20 | 0 | 0.0 | 3.2 | 0.00 | 0.03 | 0.03 | 65 | 1011.2 |
| 20260503004542 | 20 | 0 | 0.0 | 3.2 | 0.00 | 0.03 | 0.03 | 64 | 1011.1 |
| 20260503003039 | 20 | 298 | 0.0 | 3.2 | 0.00 | 0.03 | 0.03 | 65 | 1011.2 |
| 20260503001538 | 20 | 283 | 1.6 | 4.8 | 0.00 | 0.03 | 0.03 | 65 | 1011.2 |
| 20260503000036 | 20 | 0 | 1.6 | 4.8 | 0.00 | 0.03 | 0.03 | 66 | 1011.4 |
| 20260502234535 | 20 | 300 | 1.6 | 6.4 | 0.00 | 0.03 | 0.03 | 65 | 1011.4 |
| 20260502233043 | 20 | 285 | 1.6 | 6.4 | 0.00 | 0.03 | 0.03 | 65 | 1011.7 |
| 20260502231557 | 21 | 0 | 1.6 | 6.4 | 0.00 | 0.03 | 0.03 | 62 | 1011.8 |
| 20260502230038 | 21 | 136 | 0.0 | 4.8 | 0.00 | 0.03 | 0.03 | 61 | 1011.8 |
| 20260502224536 | 20 | 281 | 1.6 | 8.0 | 0.00 | 0.03 | 0.03 | 64 | 1012.2 |
| 20260502223047 | 20 | 117 | 0.0 | 4.8 | 0.00 | 0.03 | 0.03 | 63 | 1012.5 |
| 20260502221534 | 21 | 284 | 0.0 | 4.8 | 0.00 | 0.03 | 0.03 | 60 | 1012.7 |
| 20260502220044 | 20 | 285 | 0.0 | 8.0 | 0.00 | 0.03 | 0.03 | 64 | 1012.8 |
| 20260502214538 | 21 | 0 | 0.0 | 4.8 | 0.00 | 0.03 | 0.03 | 59 | 1013.0 |
| 20260502213048 | 21 | 94 | 0.0 | 6.4 | 0.00 | 0.03 | 0.03 | 60 | 1013.3 |
| 20260502211543 | 18 | 0 | 0.0 | 4.8 | 0.00 | 0.03 | 0.03 | 65 | 1013.4 |
| 20260502210034 | 18 | 289 | 1.6 | 6.4 | 0.00 | 0.03 | 0.03 | 65 | 1013.7 |
| 20260502204541 | 19 | 0 | 0.0 | 3.2 | 0.00 | 0.03 | 0.03 | 65 | 1013.8 |
| 20260502203039 | 17 | 93 | 0.0 | 6.4 | 0.00 | 0.03 | 0.03 | 70 | 1014.1 |
| 20260502201537 | 16 | 285 | 1.6 | 8.0 | 0.00 | 0.03 | 0.03 | 72 | 1014.1 |